Location: Brudzew
(52.0976°N, 18.6049°E)
Time: 05:16:16
(UTC+02:00)

ISS - Visible Passes

Search period start: 28 May 2018 00:00
Search period end: 07 June 2018 00:00
Orbit: 402 x 407 km, 51.6° (Epoch: 28 May)

Date Brightness Start Highest point End Pass type
(mag) Time Alt. Az. Time Alt. Az. Time Alt. Az.
28 May -1.6 01:07:37 10° W 01:08:21 14° WSW 01:08:21 14° WSW visible
28 May -3.9 22:38:37 10° W 22:41:55 78° S 22:45:05 11° ESE visible
29 May -2.8 00:15:12 10° W 00:17:42 30° SW 00:17:42 30° SW visible
29 May -3.9 21:46:24 10° W 21:49:41 84° S 21:52:58 10° E visible
29 May -3.5 23:22:53 10° W 23:26:02 44° SSW 23:27:06 32° SSE visible
30 May -3.8 22:30:38 10° W 22:33:52 59° SSW 22:36:30 14° ESE visible
31 May -1.9 00:07:31 10° W 00:09:09 17° SW 00:09:09 17° SW visible
31 May -3.8 21:38:22 10° W 21:41:39 74° S 21:44:55 10° ESE visible
31 May -2.7 23:15:01 10° W 23:17:51 28° SSW 23:18:34 25° S visible
01 Jun -3.2 22:22:37 10° W 22:25:43 39° SSW 22:28:02 15° SE visible
02 Jun -1.9 23:07:22 10° WSW 23:09:31 16° SW 23:10:09 16° SSW visible
03 Jun -2.4 22:14:42 10° W 22:17:26 24° SSW 22:19:40 13° SSE visible
05 Jun -1.5 22:07:10 10° WSW 22:08:59 14° SW 22:10:47 10° S visible
